[[{"header":{"parameterUnit":"m.s-1","parameterCategory":1,"la1":30.2991,"la2":30.254,"lo1":-89.0895,"lo2":-89.0444,"dy":0.0017,"dx":0.0017,"nx":28,"ny":28,"refTime":"2024-05-06T21:00:00:Z","depth":0,"parameterNumber":2,"parameterNumberName":"U-component_of_WINDS"},"data":[0,0,0,0,0,0,0,0,0,0,0,0,0,0,0,0,0,0,0,0,0,0,0,0,0,0,0,0,0,0,0,0,0,0,0,0,0,0,0,0,0,0,0,0,0,0,0,0,0,0,0,0,0,0,0,0,0,0,-1.621,-1.621,0,-1.6226,-1.6226,-1.6226,-1.623,-1.623,-1.623,-1.6229,-1.6245,-1.6245,-1.6246,0,0,0,0,0,0,0,0,0,0,0,0,0,-1.6183,-1.6184,-1.621,-1.621,-1.6211,-1.6226,-1.6226,-1.6227,-1.623,-1.623,-1.623,-1.6229,-1.6245,-1.6245,-1.6246,0,0,0,0,0,0,0,0,0,0,0,0,0,-1.6197,-1.6184,-1.621,-1.6214,-1.6215,-1.6226,-1.6226,-1.6227,-1.623,-1.623,-1.623,-1.6229,-1.6244,-1.6245,-1.6246,-1.6254,0,0,-1.6248,-1.6248,0,0,0,0,0,0,0,0,-1.6196,-1.6198,-1.6213,-1.6214,-1.6215,-1.6226,-1.6222,-1.6236,-1.623,-1.6224,-1.6229,-1.6229,-1.6238,-1.624,-1.6243,-1.6255,-1.6255,-1.6248,-1.6249,-1.6249,-1.6249,0,0,0,0,0,0,0,-1.6195,-1.6197,-1.6216,-1.6214,-1.6214,-1.6215,-1.6217,-1.6225,-1.6232,-1.6225,-1.6225,-1.6227,-1.6239,-1.6242,-1.6243,-1.6256,-1.6248,-1.6249,-1.6249,-1.625,-1.6277,-1.6277,0,0,0,0,0,0,-1.6193,-1.6196,-1.6216,-1.6217,-1.6205,-1.6216,-1.6218,-1.6222,-1.6232,-1.6233,-1.6227,-1.6227,-1.6241,-1.6243,-1.6244,-1.6255,-1.6249,-1.625,-1.625,-1.6276,-1.6277,-1.6277,0,0,0,0,0,0,-1.6193,-1.6195,-1.6215,-1.6207,-1.6209,-1.6217,-1.6222,-1.6223,-1.6226,-1.6234,-1.6235,-1.6229,-1.6241,-1.6243,-1.6252,-1.6255,-1.625,-1.6251,-1.6276,-1.6276,-1.6277,-1.6276,0,0,0,0,0,0,-1.6192,-1.6195,-1.6198,-1.6207,-1.621,-1.6223,-1.6222,-1.6223,-1.6228,-1.6228,-1.6236,-1.6237,-1.6241,-1.6251,-1.6253,-1.6256,-1.6251,-1.6276,-1.6276,-1.6277,-1.6276,-1.6277,-1.6277,0,0,0,0,0,-1.6191,-1.6196,-1.6198,-1.62,-1.6214,-1.6223,-1.6225,-1.6229,-1.6228,-1.6231,-1.6236,-1.6237,-1.6255,-1.6252,-1.6254,-1.6258,-1.6275,-1.6276,-1.6277,-1.6276,-1.6277,-1.6277,0,0,0,0,0,0,-1.6187,-1.6198,-1.6199,-1.6208,-1.6215,-1.6224,-1.6227,-1.623,-1.6236,-1.6236,-1.6241,-1.6243,-1.6252,-1.6256,-1.6252,-1.6267,-1.6265,-1.6266,-1.6264,-1.6265,-1.6265,-1.6264,-1.6252,0,0,0,0,0,-1.6187,-1.6194,-1.6203,-1.621,-1.6213,-1.622,-1.6224,-1.6227,-1.6234,-1.6237,-1.6242,-1.6249,-1.6257,-1.6261,-1.6268,-1.6277,-1.628,-1.6281,-1.6282,-1.6282,-1.6283,-1.6289,-1.629,-1.6279,-1.6279,-1.6279,0,0,-1.6187,-1.6194,-1.6198,-1.6209,-1.6215,-1.6222,-1.6222,-1.6229,-1.6235,-1.6238,-1.6247,-1.6252,-1.6259,-1.6269,-1.6273,-1.6273,-1.6287,-1.6283,-1.6283,-1.6284,-1.629,-1.6291,-1.6292,-1.6279,-1.6279,-1.6279,0,0,-1.6191,-1.6197,-1.6203,-1.621,-1.6218,-1.6223,-1.6225,-1.6234,-1.6238,-1.6247,-1.625,-1.6257,-1.6269,-1.6275,-1.6279,-1.6288,-1.6289,-1.6291,-1.6293,-1.6299,-1.63,-1.6301,-1.6304,-1.6305,-1.6291,-1.6291,-1.6291,0,-1.619,-1.6201,-1.6206,-1.6214,-1.6219,-1.6224,-1.6231,-1.6236,-1.6247,-1.6251,-1.625,-1.6266,-1.6272,-1.6283,-1.6286,-1.6289,-1.6292,-1.6289,-1.6299,-1.63,-1.6301,-1.6304,-1.6306,-1.6291,-1.6291,-1.6291,-1.6291,0,-1.6199,-1.6207,-1.6211,-1.6222,-1.6228,-1.6235,-1.6243,-1.6248,-1.6251,-1.6256,-1.6267,-1.6274,-1.6283,-1.6286,-1.6289,-1.6299,-1.6298,-1.6298,-1.6296,-1.6302,-1.6305,-1.6307,-1.6291,-1.6291,-1.6291,-1.6291,0,0,-1.6199,-1.6215,-1.6216,-1.6222,-1.6233,-1.6239,-1.6247,-1.6257,-1.6262,-1.6269,-1.6277,-1.6288,-1.6289,-1.6294,-1.6298,-1.6303,-1.6311,-1.6303,-1.6303,-1.6304,-1.6322,-1.6322,-1.6323,-1.6312,-1.6312,-1.6313,-1.6322,0,-1.6204,-1.6219,-1.6225,-1.6237,-1.6244,-1.625,-1.6257,-1.6265,-1.6271,-1.6278,-1.6284,-1.6293,-1.6293,-1.6296,-1.6302,-1.6308,-1.6314,-1.6308,-1.6319,-1.6319,-1.6316,-1.6324,-1.6323,-1.6331,-1.6323,-1.6323,-1.6323,0,-1.6212,-1.622,-1.6233,-1.6245,-1.6248,-1.6254,-1.6265,-1.6272,-1.6281,-1.6285,-1.6292,-1.6296,-1.6306,-1.6304,-1.6317,-1.6313,-1.6318,-1.6322,-1.6323,-1.6323,-1.6321,-1.6325,-1.6334,-1.6335,-1.6325,-1.6325,-1.6325,0,-1.621,-1.6225,-1.6235,-1.624,-1.6254,-1.6258,-1.6264,-1.6274,-1.6279,-1.6289,-1.6293,-1.6303,-1.6308,-1.6316,-1.6323,-1.6321,-1.6336,-1.6334,-1.6339,-1.6339,-1.6341,-1.634,-1.635,-1.6345,-1.6345,-1.6345,-1.6345,0,-1.6215,-1.6223,-1.6235,-1.6241,-1.625,-1.6258,-1.6267,-1.6273,-1.6282,-1.6289,-1.6295,-1.6302,-1.6311,-1.632,-1.6325,-1.6336,-1.6338,-1.6341,-1.6343,-1.634,-1.634,-1.6343,-1.6342,-1.6345,-1.6345,-1.6345,-1.6345,0,-1.6215,-1.6223,-1.6234,-1.6247,-1.6251,-1.6257,-1.6268,-1.6274,-1.6281,-1.629,-1.6293,-1.6304,-1.6314,-1.6322,-1.6335,-1.6339,-1.635,-1.6352,-1.6347,-1.6348,-1.6352,-1.6351,-1.6363,-1.6366,-1.6359,-1.6359,-1.6359,0,-1.6217,-1.6223,-1.6237,-1.6243,-1.6249,-1.6258,-1.6264,-1.6273,-1.6279,-1.6292,-1.6297,-1.6308,-1.6317,-1.6333,-1.6342,-1.6353,-1.6354,-1.6358,-1.6356,-1.6354,-1.6354,-1.6354,-1.6354,-1.6358,-1.6358,-1.6358,-1.6358,0,-1.622,-1.6224,-1.6233,-1.6244,-1.6252,-1.6261,-1.627,-1.6275,-1.6285,-1.6293,-1.6304,-1.6311,-1.6325,-1.6336,-1.6348,-1.6354,-1.6358,-1.6359,-1.6361,-1.6358,-1.6355,-1.6357,-1.6347,-1.6358,-1.6358,-1.6358,-1.6358,-1.6358,-1.6221,-1.6227,-1.6238,-1.6248,-1.6256,-1.6265,-1.6272,-1.628,-1.629,-1.6302,-1.6307,-1.6319,-1.633,-1.6346,-1.6353,-1.6362,-1.6362,-1.6364,-1.6365,-1.6365,-1.6365,-1.6354,-1.6364,-1.6364,-1.6364,-1.6364,-1.6364,0,-1.6224,-1.6232,-1.6241,-1.6254,-1.6263,-1.6267,-1.6278,-1.6284,-1.6294,-1.6305,-1.6314,-1.6327,-1.6338,-1.6349,-1.6361,-1.6366,-1.6368,-1.6369,-1.6368,-1.637,-1.6364,-1.6362,-1.6367,-1.6367,-1.6367,-1.6367,-1.6367,-1.6367,-1.6227,-1.6237,-1.6243,-1.6258,-1.6266,-1.6278,-1.6284,-1.6292,-1.6301,-1.6315,-1.6325,-1.6332,-1.6342,-1.6355,-1.6366,-1.6369,-1.6373,-1.6373,-1.6376,-1.637,-1.637,-1.637,-1.6367,-1.6374,-1.6374,-1.6381,-1.6381,-1.6381]},{"header":{"parameterUnit":"m.s-1","parameterCategory":1,"la1":30.2991,"la2":30.254,"lo1":-89.0895,"lo2":-89.0444,"dy":0.0017,"dx":0.0017,"nx":28,"ny":28,"refTime":"2024-05-06T21:00:00:Z","depth":0,"parameterNumber":3,"parameterNumberName":"V-component_of_WINDS"},"data":[0,0,0,0,0,0,0,0,0,0,0,0,0,0,0,0,0,0,0,0,0,0,0,0,0,0,0,0,0,0,0,0,0,0,0,0,0,0,0,0,0,0,0,0,0,0,0,0,0,0,0,0,0,0,0,0,0,0,6.3332,6.3334,0,6.345,6.3452,6.3453,6.3449,6.3447,6.3445,6.3444,6.3559,6.3563,6.3568,0,0,0,0,0,0,0,0,0,0,0,0,0,6.3097,6.3101,6.3332,6.3334,6.3335,6.345,6.3452,6.3453,6.3449,6.3447,6.3445,6.3443,6.3557,6.3562,6.3568,0,0,0,0,0,0,0,0,0,0,0,0,0,6.3205,6.3103,6.3332,6.3347,6.335,6.345,6.3452,6.3454,6.3449,6.3447,6.3444,6.3442,6.3555,6.3562,6.3569,6.366,0,0,6.359,6.3593,0,0,0,0,0,0,0,0,6.3199,6.3214,6.3343,6.3346,6.3349,6.3432,6.3411,6.3522,6.345,6.3411,6.3444,6.3441,6.3518,6.3528,6.3555,6.3665,6.367,6.359,6.3594,6.3597,6.3599,0,0,0,0,0,0,0,6.3192,6.3209,6.3379,6.3345,6.3349,6.3346,6.3359,6.3432,6.3477,6.3414,6.3415,6.3429,6.3519,6.3549,6.3558,6.3672,6.359,6.3596,6.36,6.3603,6.3861,6.3864,0,0,0,0,0,0,6.3182,6.3203,6.3375,6.3382,6.3267,6.3352,6.3366,6.3408,6.3476,6.3484,6.3431,6.3428,6.3538,6.355,6.3562,6.3673,6.3597,6.3604,6.3608,6.3858,6.3862,6.3864,0,0,0,0,0,0,6.3177,6.3197,6.337,6.3293,6.3314,6.3359,6.3406,6.3412,6.3441,6.3488,6.3496,6.3453,6.3537,6.3552,6.3636,6.3677,6.3607,6.3613,6.3855,6.3859,6.3863,6.3895,0,0,0,0,0,0,6.317,6.3196,6.3232,6.3294,6.3319,6.3444,6.3408,6.3416,6.3454,6.3451,6.3511,6.3519,6.3536,6.3625,6.3642,6.3685,6.3618,6.3851,6.3857,6.3862,6.3891,6.39,6.3908,0,0,0,0,0,6.3162,6.3235,6.3234,6.3255,6.3366,6.3447,6.3461,6.3481,6.3457,6.3493,6.3523,6.3517,6.3669,6.3634,6.3653,6.3698,6.3849,6.3855,6.3861,6.3887,6.3898,6.3908,0,0,0,0,0,0,6.3176,6.3244,6.3243,6.3339,6.3387,6.3446,6.3492,6.3492,6.3547,6.3542,6.3562,6.3576,6.366,6.3687,6.3646,6.3789,6.3756,6.3766,6.3769,6.378,6.3788,6.378,6.3624,0,0,0,0,0,6.319,6.3252,6.3307,6.3387,6.3411,6.3448,6.3483,6.3495,6.3545,6.3565,6.3601,6.3648,6.3706,6.3744,6.3801,6.3894,6.3907,6.3935,6.3943,6.395,6.3959,6.401,6.4023,6.3885,6.3885,6.3885,0,0,6.322,6.3265,6.3303,6.3391,6.343,6.3492,6.3465,6.3531,6.3577,6.3574,6.3656,6.3684,6.3737,6.3826,6.3867,6.3852,6.3999,6.3958,6.3963,6.3968,6.4017,6.403,6.4042,6.3889,6.3888,6.3888,0,0,6.3307,6.3348,6.3419,6.3458,6.3518,6.3541,6.3558,6.3617,6.3636,6.3719,6.3718,6.3771,6.3871,6.391,6.3942,6.4043,6.4039,6.406,6.4105,6.4155,6.4166,6.4175,6.4211,6.4224,6.4069,6.4069,6.4069,0,6.3337,6.3433,6.3454,6.3522,6.356,6.3562,6.3633,6.3669,6.3743,6.3769,6.375,6.3877,6.3913,6.401,6.4035,6.4061,6.408,6.4054,6.4163,6.4173,6.4182,6.4216,6.423,6.4071,6.4071,6.4071,6.407,0,6.3466,6.3532,6.3581,6.3656,6.3699,6.3767,6.3798,6.3838,6.3846,6.387,6.3954,6.3997,6.4062,6.4086,6.4093,6.4185,6.4173,6.4159,6.4125,6.4197,6.423,6.4243,6.4074,6.4074,6.4073,6.4072,0,0,6.3566,6.3651,6.3669,6.3702,6.3768,6.3818,6.3886,6.3952,6.3986,6.4037,6.4093,6.4178,6.4165,6.4202,6.4213,6.4256,6.4333,6.4236,6.4238,6.4253,6.4436,6.4447,6.4462,6.433,6.4333,6.4335,6.4432,0,6.366,6.3784,6.3804,6.3911,6.3972,6.3974,6.4033,6.4078,6.4103,6.4156,6.4182,6.4242,6.4221,6.4243,6.4286,6.4315,6.437,6.4308,6.4382,6.4384,6.4369,6.4479,6.4492,6.4581,6.4445,6.4447,6.4448,0,6.3787,6.3843,6.3957,6.4014,6.404,6.4093,6.4155,6.4206,6.4257,6.4272,6.4313,6.4319,6.4387,6.435,6.4444,6.4401,6.4432,6.445,6.4454,6.4462,6.4421,6.4491,6.461,6.4624,6.4469,6.4467,6.4465,0,6.3849,6.3952,6.4034,6.4062,6.4131,6.4168,6.4198,6.4247,6.4285,6.4337,6.4362,6.4421,6.4453,6.4498,6.4519,6.449,6.4611,6.4576,6.4624,6.4624,6.465,6.4648,6.4777,6.4669,6.4669,6.4669,6.4668,0,6.3952,6.4022,6.4063,6.4113,6.4191,6.4213,6.4288,6.4316,6.4359,6.4414,6.4417,6.4468,6.4492,6.4545,6.4561,6.4636,6.465,6.4663,6.4667,6.4663,6.4662,6.4684,6.4679,6.4672,6.4671,6.4671,6.467,0,6.4035,6.4066,6.4155,6.4213,6.4229,6.4284,6.4332,6.438,6.4404,6.4472,6.4489,6.4526,6.4589,6.4614,6.469,6.4701,6.4787,6.4786,6.4771,6.4772,6.4819,6.4815,6.4967,6.4988,6.4866,6.4867,6.4868,0,6.41,6.4154,6.4218,6.4256,6.4288,6.4348,6.4387,6.441,6.445,6.4512,6.4552,6.4615,6.4667,6.4767,6.4799,6.4857,6.4857,6.4906,6.4866,6.4861,6.4858,6.4855,6.486,6.4914,6.4915,6.4916,6.4917,0,6.4211,6.4224,6.4282,6.4345,6.4392,6.4442,6.449,6.452,6.455,6.4595,6.466,6.4701,6.4779,6.4842,6.4902,6.493,6.4928,6.493,6.4944,6.4942,6.4931,6.4938,6.4792,6.4926,6.4925,6.4925,6.4924,6.4924,6.4288,6.4336,6.4389,6.4452,6.4492,6.4537,6.4585,6.4615,6.4671,6.4739,6.4748,6.4818,6.4865,6.4946,6.4976,6.503,6.5017,6.5037,6.5043,6.5048,6.5051,6.4922,6.5041,6.504,6.504,6.504,6.504,0,6.44,6.4434,6.4492,6.4561,6.4611,6.4607,6.466,6.4702,6.4764,6.481,6.4861,6.4936,6.4996,6.5033,6.5093,6.5129,6.5129,6.5144,6.5142,6.5148,6.5059,6.5041,6.5142,6.5142,6.5142,6.5142,6.5142,6.5142,6.4464,6.4545,6.4564,6.4663,6.4696,6.4767,6.4798,6.4839,6.4875,6.496,6.501,6.5035,6.5076,6.5139,6.5194,6.5203,6.5225,6.524,6.5248,6.5165,6.5154,6.5144,6.5127,6.5245,6.5245,6.5333,6.5334,6.5334]}]]